PORT of PALM BEACH

Държава: USA Държава: USA [US]
Географска ширина / дължина: 26.767° / -80.045° Покажи върху картата
Мстно време:  [UTC -4]
UN/LOCODE: USPAB
Кораби в пристанището в момента: 7
Очаквани за отплаване: 1

Последни пристигащи и отплавали


Име на кораба
Пристигащи (UTC)
Пристигащи (LT)
Заминаващи (UTC)
Заминаващи (LT)
Vessel Type: Товарни кораби  TROPIC JADE 2014-08-27 22:54:00 2014-08-27 18:54:00 2014-08-28 03:33:00 2014-08-27 23:33:00
Vessel Type: Товарни кораби  TROPIC TIDE 2014-08-27 11:13:00 2014-08-27 07:13:00 2014-08-28 01:04:00 2014-08-27 21:04:00
Vessel Type: Пътнически кораб  BAHAMAS CELEBRATION 2014-08-27 10:42:00 2014-08-27 06:42:00 2014-08-27 22:33:00 2014-08-27 18:33:00
Vessel Type: Товарни кораби  EDAMGRACHT 2014-08-27 09:45:00 2014-08-27 05:45:00 2014-08-27 22:12:00 2014-08-27 18:12:00
Vessel Type: Яхти и други  LUCKY STAR 2014-08-27 20:38:00 2014-08-27 16:38:00 2014-08-27 21:37:00 2014-08-27 17:37:00
Vessel Type: Товарни кораби  TROPIC CARIB 2014-08-27 11:55:00 2014-08-27 07:55:00
Vessel Type: Товарни кораби  TROPIC JADE 2014-08-26 23:13:00 2014-08-26 19:13:00 2014-08-27 03:09:00 2014-08-26 23:09:00
Vessel Type: Товарни кораби  CARIBE LEGEND 2014-08-26 23:59:00 2014-08-26 19:59:00
Vessel Type: Товарни кораби  TROPIC MIST 2014-08-22 23:09:00 2014-08-22 19:09:00 2014-08-26 23:00:00 2014-08-26 19:00:00
Vessel Type: Товарни кораби  TROPIC EXPRESS 2014-08-26 11:06:00 2014-08-26 07:06:00 2014-08-26 22:33:00 2014-08-26 18:33:00

Очаквани за отплаване


Име на кораба
Scheduled Arrival (UTC)
Scheduled Arrival (LT)
Очаквано отплаване (UTC)
Очаквано отплаване (местно време)
Vessel Type: Товарни кораби  AHS HAMBURG 2014-08-29 18:00:00 2014-08-29 14:00:00 2014-08-29 18:14:00 2014-08-29 14:14:00

Wind Forecast


    
Време (UTC)
Скорост
Direction
Temperature
2014-08-28 03:00:00 2 knots 94° 28°C
2014-08-28 06:00:00 6 knots 186° 28°C
2014-08-28 09:00:00 4 knots 229° 28°C
2014-08-28 12:00:00 2 knots 197° 28°C
2014-08-28 15:00:00 3 knots 130° 29°C
2014-08-28 18:00:00 8 knots 118° 30°C
2014-08-28 21:00:00 10 knots 138° 30°C
2014-08-29 00:00:00 10 knots 150° 29°C
2014-08-29 03:00:00 10 knots 150° 29°C
2014-08-29 06:00:00 10 knots 147° 29°C
2014-08-29 09:00:00 9 knots 140° 29°C
2014-08-29 12:00:00 8 knots 126° 29°C
2014-08-29 15:00:00 11 knots 117° 29°C
2014-08-29 18:00:00 13 knots 124° 29°C
2014-08-29 21:00:00 12 knots 124° 30°C
2014-08-30 00:00:00 11 knots 113° 29°C
2014-08-30 03:00:00 13 knots 121° 29°C